Regional Weather Roundup
Issued by NWS

Home | Current Version | Previous Version | Graphics & Text | Print | Product List | Glossary On
Versions: 1 2 3 4 5 6 7 8 9 10 11 12 13 14 15 16 17 18 19 20 21 22 23 24 25 26 27 28 29 30 31 32 33 34 35 36 37 38 39 40 41 42 43 44 45 46 47 48 49 50
000
ASUS43 KDTX 022110
RWRMI
MICHIGAN HOURLY REGIONAL WEATHER ROUNDUP
NATIONAL WEATHER SERVICE DETROIT/PONTIAC MI
500 PM EDT SUN AUG 02 2015

NOTE: "FAIR" INDICATES FEW OR NO CLOUDS BELOW 12,000 FEET WITH NO
SIGNIFICANT WEATHER AND/OR OBSTRUCTION TO VISIBILITY.

MIZ047>049-052>055-059>063-066>070-074>076-081>083-022200-
SOUTHEAST LOWER MICHIGAN

CITY           SKY/WX    TMP DP  RH WIND       PRES   REMARKS
ADRIAN         SUNNY     88  62  41 W12G25    29.78F
ALMA           MOSUNNY   87  66  48 SW17G28   29.63F
ANN ARBOR      MOSUNNY   89  64  43 SW16G26   29.75F HX  90
BAD AXE        CLOUDY    73  65  77 SW9       29.66F
CARO           CLOUDY    72  69  90 SE8       29.64F
DETROIT CITY   MOSUNNY   91  60  35 SW22G29   29.73F HX  90
DETROIT        MOSUNNY   92  61  35 SW24      29.76S HX  92
FLINT          MOSUNNY   89  59  36 SW14G31   29.69F
GROSSE ILE     SUNNY     90  59  35 SW16G25   29.75F
HILLSDALE      SUNNY     88  65  45 SW12G23   29.79S HX  90
HOWELL         MOSUNNY   89  60  36 SW18G31   29.72F

CITY           SKY/WX    TMP DP  RH WIND       PRES   REMARKS
JACKSON        MOSUNNY   87  66  49 SW21G31   29.75F
LAMBERTVILLE   SUNNY     89  59  36 W13G22    29.78F
LANSING        MOSUNNY   91  62  37 SW25G33   29.68F HX  91
LAPEER         FAIR      89  61  39 W13G23    29.69F
MASON          MOSUNNY   86  62  43 SW17G24   29.71F
MONROE         SUNNY     89  63  41 SW20G25   29.76S HX  90
MT. CLEMENS    PTSUNNY   92  58  31 SW20G25   29.70F HX  91
PONTIAC        MOSUNNY   89  60  37 SW21G29   29.72F
PORT HURON     CLOUDY    88  61  40 SW8G17    29.71F
TRI CITIES     PTSUNNY   88  67  49 SW23G32   29.61F HX  91
MIDLAND        PTSUNNY   88  66  48 S14G24    29.59F HX  90
TROY           MOSUNNY   92  58  31 SW17G24   29.75F HX  91
SAGINAW HB     PTSUNNY   82  72  69 SW17G30   29.61F
$$
MIZ043>046-050>051-056>058-064>065-071>073-077>080-022200-
SOUTHWEST LOWER MICHIGAN

CITY           SKY/WX    TMP DP  RH WIND       PRES   REMARKS
BATTLE CREEK   SUNNY     92  63  38 SW30G40   29.72F HX  93
BENTON HARBOR  SUNNY     88  65  46 SW24G32   29.72F HX  90
BIG RAPIDS     MOSUNNY   84  66  53 SW17G29   29.60R
COLDWATER      SUNNY     87  63  45 SW18G29   29.76F
FREMONT        FAIR      86  61  42 SW24G33   29.60R
HOLLAND        SUNNY     91  65  41 SW29G39   29.66F HX  93
GRAND RAPIDS   MOSUNNY   91  64  40 SW23G41   29.64F HX  92
IONIA          FAIR      91  64  40 SW20G36   29.64F HX  91
KALAMAZOO      SUNNY     92  64  39 SW23G36   29.71F HX  93
LUDINGTON      PTSUNNY   81  69  65 S22G35    29.53F
MARSHALL       SUNNY     90  63  40 SW23G32   29.73F HX  91
MOUNT PLEASANT MOSUNNY   92  65  41 SW21G26   29.60F HX  93
MUSKEGON       MOSUNNY   85  65  51 S23G37    29.62F
SOUTH HAVEN    SUNNY     89  63  41 SW21G35   29.69F HX  90
$$
MIZ016>042-022200-
NORTHERN LOWER MICHIGAN

CITY           SKY/WX    TMP DP  RH WIND       PRES   REMARKS
ALPENA         CLOUDY    67  64  90 SW5       29.58F
BEAVER ISLAND  RAIN      65  63  94 SE12      29.54F
BELLAIRE       HVY RAIN  66  63  88 W7G25     29.70R
CADILLAC       CLOUDY    81  69  67 SW17G23   29.58F
CHARLEVOIX     RAIN      66  64  91 W12G24    29.69R
FRANKFORT      HVY RAIN  60  59  94 N8        29.62F
GAYLORD          N/A     69  68  96 NW6       29.63
GRAYLING       CLOUDY    66  62  86 E3        29.57F
HARBOR SPRINGS RAIN      66  64  92 W12G22    29.67R
HOUGHTON LAKE  CLOUDY    64  60  87 E5        29.59F THUNDER
MANISTEE       PTSUNNY   68  55  64 N20G39    29.63R
OSCODA         CLOUDY    68  65  89 E8        29.63F
PELLSTON       RAIN      67  64  90 W13       29.65R
ROGERS CITY    LGT RAIN  68  65  91 S6        29.60R
TRAVERSE CITY  TSTM      60  58  92 N14G31    29.61R
$$
MIZ007>008-015-022200-
EASTERN UPPER MICHIGAN

CITY           SKY/WX    TMP DP  RH WIND       PRES   REMARKS
KINROSS        CLOUDY    66  64  94 W5        29.58R
MACKINAC ISLAN LGT RAIN  66  66  99 SW12G17   29.60R
NEWBERRY       CLOUDY    65  64  97 SW8       29.58R
S. S. MARIE    LGT RAIN  69  65  86 SW6       29.57S
MUNISING         N/A     70  63  78 NW7       29.57R
$$
MIZ004>006-011>014-085-022200-
CENTRAL UPPER MICHIGAN

CITY           SKY/WX    TMP DP  RH WIND       PRES   REMARKS
MANISTIQUE     CLOUDY    63  63 100 CALM      29.55F
ESCANABA       CLOUDY    66  63  88 CALM      29.55F
MENOMINEE      CLOUDY    64  57  77 E6        29.56S
SAWYER-GWINN   PTSUNNY   70  61  73 NW7       29.59S
$$
MIZ001>003-009>011-084-022200-
WESTERN UPPER MICHIGAN

CITY           SKY/WX    TMP DP  RH WIND       PRES   REMARKS
IRON MOUNTAIN  MOSUNNY   72  63  73 W7        29.56F
HOUGHTON       SUNNY     72  57  59 W13       29.59S
COPPER HARBOR    N/A     70  60  70 N13       29.56F
IRONWOOD       MOSUNNY   72  57  60 NW8       29.63S
$$

ABBREVIATIONS USED IN REMARKS
   TC - TEMPERATURE IN CELSIUS
  WCI - WIND CHILL INDEX
   HX - HEAT INDEX
  VSB - VISIBILITY




USA.gov is the U.S. government's official web portal to all federal, state and local government web resources and services.